#timestamp,LO_Frequency,Hit 
1601280015.3,286047004.5,N
1601280035.2,286047006.4,N
1601280055.9,286047008.1,P
1601280075.7,286047003.4,N
1601280095.6,286047004.8,N
1601280115.4,286047007.0,P
1601280135.2,286047004.4,P
1601280155.1,286047003.0,N
1601280156.0,286047003.0,N
1601280175.8,286047005.6,P
1601280195.6,286047000.0,N
1601280215.5,286047002.8,N
1601280235.3,286047001.9,N
1601280255.1,286047003.9,N
1601280275.9,286047001.7,N
1601280295.7,286047001.5,N
1601280315.5,286047003.9,N
1601280335.4,286047003.6,N
1601280355.2,286047002.0,N
1601280375.0,286047001.6,N
1601280375.9,286047001.6,N
1601280395.8,286047004.3,N
1601280415.6,286047002.2,N
1601280435.4,286047002.6,N
1601280455.3,286046999.9,N
1601280475.1,286046999.9,N
1601280476.0,286046999.9,N
1601280495.8,286047000.8,N
1601280515.7,286046998.5,N
1601280535.5,286046998.4,N
1601280555.3,286046998.5,N
1601280575.2,286046998.8,N
1601280595.9,286046997.9,N
1601280615.7,286046997.4,N
1601280635.5,286046995.3,N
1601280655.4,286046996.1,N
1601280675.2,286046993.4,N
1601280695.0,286046994.0,N
1601280695.9,286046994.0,N
1601280715.8,286046993.5,N
1601280735.6,286046996.3,N
1601280755.4,286046993.6,N
1601280775.3,286046994.6,N
1601280795.1,286046991.8,N
1601280815.8,286046992.6,N
1601280835.7,286046988.9,P
1601280855.5,286046993.0,N
1601280875.4,286046990.1,N
1601280895.2,286046991.4,N
1601280915.0,286046988.7,P
1601280915.9,286046988.7,P
1601280935.8,286046997.3,N
1601280955.6,286046996.7,N
1601280975.4,286046997.3,N
1601280995.3,286046995.8,N
1601281015.1,286046995.7,N
1601281016.0,286046995.7,N
1601281035.8,286046993.5,N
1601281055.7,286046994.2,N
1601281075.5,286046992.1,N
1601281095.3,286046994.2,N
1601281115.2,286046993.2,N
1601281135.9,286046990.2,P
1601281155.7,286046996.8,N
1601281175.6,286046996.9,N
1601281195.4,286046995.0,N
1601281215.2,286046995.6,N
1601281235.1,286046995.8,N
1601281236.0,286046995.8,N
1601281255.8,286046996.1,N
1601281275.6,286046996.4,N
1601281295.5,286046993.7,P
1601281315.3,286046997.0,P
1601281335.1,286046999.6,N
1601281355.9,286046997.2,N
1601281375.7,286046997.4,N
1601281395.5,286046995.1,N
1601281415.4,286046995.8,N
1601281435.2,286046995.7,N
1601281455.0,286046993.8,P
1601281455.9,286046993.8,P
1601281475.8,286046999.2,N
1601281495.6,286046997.0,N
1601281515.4,286046996.6,N
1601281535.3,286046995.5,N
1601281555.1,286046995.4,N
1601281556.0,286046995.4,N
1601281575.8,286046995.1,P
1601281595.7,286046999.4,N
1601281615.5,286046999.2,N
1601281635.3,286046999.5,N
1601281655.2,286046995.1,N
1601281675.0,286046995.3,N
1601281675.9,286046995.3,N
1601281695.7,286046995.1,N
1601281715.6,286046996.1,N
1601281735.4,286046995.9,N
1601281755.3,286046993.7,P
1601281775.1,286046998.0,N
1601281776.0,286046998.0,N
1601281795.8,286046997.6,N
1601281815.7,286046995.0,P
1601281835.5,286047001.1,N
1601281855.3,286046998.2,N
1601281875.2,286046996.5,N
1601281895.9,286046999.6,N
1601281915.7,286046997.7,N
1601281935.6,286046995.2,N
1601281955.4,286046998.0,N
1601281975.2,286046997.5,N
1601281995.0,286046995.2,N
1601281996.0,286046995.2,N
1601282015.8,286046996.1,N
1601282035.6,286046994.5,P
1601282055.5,286046995.2,P
1601282075.3,286046997.5,N
1601282095.1,286046995.1,P
1601282115.9,286047000.8,N
1601282135.7,286046996.9,N
1601282155.5,286046996.7,N
1601282175.4,286046996.5,N
1601282195.2,286046995.4,N
1601282215.0,286046995.1,N
1601282215.9,286046995.1,N
1601282235.8,286046997.8,N
1601282255.6,286046996.2,N
1601282275.4,286046995.9,N
1601282295.3,286046996.0,N
1601282315.1,286046994.6,P
1601282316.0,286046994.6,P
1601282335.8,286046995.6,P
1601282355.7,286046995.2,P
1601282375.5,286047001.2,P
1601282395.3,286047000.8,N
1601282415.2,286046998.3,N
1601282435.9,286046999.4,N
1601282455.7,286046999.4,N
1601282475.6,286046998.5,N
1601282495.4,286046997.2,N
1601282515.2,286046995.0,N
1601282535.1,286046997.1,N
1601282536.0,286046997.1,N
1601282555.8,286046995.2,N
1601282575.6,286046996.4,N
1601282595.5,286046994.1,N
1601282615.3,286046993.5,P
1601282635.1,286046996.7,N
1601282655.9,286046995.0,N
1601282675.7,286046996.3,N
1601282695.6,286046995.4,P
1601282715.4,286047000.8,P
1601282735.2,286047001.2,N
1601282755.0,286046998.8,N
1601282755.9,286046998.8,N
1601282775.8,286046999.0,N
1601282795.6,286046996.9,N
1601282815.4,286046997.7,N
1601282835.3,286046997.1,N
1601282855.1,286046997.4,N
1601282875.8,286046995.7,N
1601282895.7,286046997.3,N
1601282915.5,286046995.5,N
1601282935.3,286046996.0,N
1601282955.2,286046994.6,P
1601282975.0,286046996.2,N
1601282975.9,286046996.2,P
1601282995.8,286046997.9,N
1601283015.6,286046998.0,N
1601283035.4,286046996.0,P
1601283055.3,286046998.4,P
1601283075.1,286046997.2,N
1601283095.8,286047001.2,P
1601283115.7,286047000.7,N
1601283135.5,286047000.8,N
1601283155.3,286046998.2,N
1601283175.2,286046996.7,N
1601283195.9,286046999.6,N
1601283215.7,286046997.8,N
1601283235.6,286046997.2,N
1601283255.4,286046994.9,P
1601283275.2,286046996.6,N
1601283295.1,286046997.8,N
1601283296.0,286046997.8,N
1601283315.8,286046997.3,N
1601283335.6,286046996.8,N
1601283355.5,286046995.0,P
1601283375.3,286046998.4,N
1601283395.1,286046999.0,N
1601283415.9,286046996.9,N
1601283435.7,286046997.2,N
1601283455.5,286046996.9,N
1601283475.4,286046995.3,P
1601283495.2,286046998.5,N
1601283515.1,286046998.6,N
1601283516.0,286046998.6,N
1601283535.8,286046999.0,N
1601283555.6,286046996.7,N
1601283575.4,286046996.7,N
1601283595.3,286046996.8,N
